Regional Weather Roundup
Issued by NWS

Home | Current Version | Previous Version | Graphics & Text | Print | Product List | Glossary On
Versions: 1 2 3 4 5 6 7 8 9 10 11 12 13 14 15 16 17 18 19 20 21 22 23 24 25 26 27 28 29 30 31 32 33 34 35 36 37 38 39 40 41 42 43 44 45 46 47 48 49 50
000
ASUS45 KTFX 292119
RWRMT
MONTANA HOURLY WEATHER ROUNDUP
NATIONAL WEATHER SERVICE GREAT FALLS MT
219 PM MST THU JAN 29 2015

NOTE: "FAIR" INDICATES FEW OR NO CLOUDS BELOW 12000 FEET WITH NO
SIGNIFICANT WEATHER AND/OR OBSTRUCTIONS TO VISIBILITY.

* THESE STATIONS ARE NOT UNDER NWS QUALITY CONTROL. THEY DO NOT
   REPORT WEATHER SUCH AS PRECIPITATION OR FOG.

MTZ001>007-043-292200-
WEST OF THE DIVIDE
CITY           SKY/WX    TMP DP  RH WIND       PRES   REMARKS
KALISPELL      PTSUNNY   27  25  92 CALM      30.37F
MISSOULA       PTCLDY    32  27  82 SW3       30.38F
BUTTE          SUNNY     39  21  48 N3        30.31F
MULLAN PASS    SUNNY     36  16  44 CALM      30.29F
* ANACONDA     SUNNY     43  19  38 E3         N/A
* ESSEX        N/A       36  25  64 W2G7       N/A
* EUREKA APT   PTCLDY    30  28  92 W3        30.39F
* HAMILTON APT PTCLDY    41  23  49 N5        30.33F
* LIBBY APT    PTCLDY    30  28  92 CALM      30.41F
* LINCOLN      N/A       39  23  53 SE2        N/A
* LOOKOUT PASS N/A       38  27  65 S6         N/A   WCI  33
* POLSON       N/A       32  29  89 SE2        N/A
* RONAN APT    PTSUNNY   32  32 100 N/A        N/A
* SEELEY LAKE  N/A       42  24  49 NW2        N/A
* THOMP F APT  PTCLDY    37  26  64 S3         N/A
$$

MTZ008-052>055-292200-
SOUTHWEST MONTANA
CITY           SKY/WX    TMP DP  RH WIND       PRES   REMARKS
BOZEMAN        SUNNY     41  27  58 CALM      30.33F
DILLON         SUNNY     39  21  48 CALM      30.32F
* W YELLOWSTON SUNNY     35  20  54 N2         N/A
* THREE FORKS  SUNNY     43  36  76 N/A        N/A
* BOULDER HILL N/A       36  22  57 S13        N/A   WCI  27
* MONIDA PASS  N/A       21  21 100 N8         N/A   WCI  11
* RAYNOLDS PAS N/A       29  17  61 S6         N/A   WCI  23
* WHITEHALL    N/A       43  24  47 W9         N/A
* WISE RIVER   N/A       32  20  61 W3         N/A
$$

MTZ009>010-012-014-046-048-049-054-292200-
EAST SLOPES AND CENTRAL MONTANA
CITY           SKY/WX    TMP DP  RH WIND       PRES   REMARKS
CUT BANK       PTCLDY    39  28  65 SE6       30.20F WCI  35
GREAT FALLS    PTSUNNY   48  16  28 SW15      30.22F
HELENA         SUNNY     43  28  56 VRB3      30.31F
MALMSTROM AFB  PTCLDY    52  21  30 SW18G23   30.22F
* CONRAD       PTCLDY    45  28  51 S9         N/A
* DEARBORN     N/A       48  17  29 S14        N/A
* EAST GLACIER N/A       37  18  46 W18G29     N/A   WCI  27
* MONARCH      N/A       47  12  24 SW3G8      N/A
* PENDROY      N/A       48  15  27 S3         N/A
* ROGERS PASS  N/A       37  17  44 SE7G19     N/A   WCI  32
* SWEET GRASS  N/A       32  32 100 S14G19     N/A   WCI  22
* WHITE SULPH  N/A       45  24  44 SW6G18     N/A
$$

MTZ011-013-016-021-035-040-045-047-050-051-292200-
NORTH CENTRAL MONTANA
CITY           SKY/WX    TMP DP  RH WIND       PRES   REMARKS
HAVRE          SUNNY     37  30  76 E7        30.25F WCI  32
LEWISTOWN      SUNNY     48  21  34 E5        30.24F
* N BAR RANCH  SUNNY     48  18  30 CALM      30.24F
* CHINOOK      SUNNY     43  30  60 CALM      30.26F
* MALTA APT    SUNNY     45  32  60 E6         N/A
* CHESTER      N/A       36  30  79 S2         N/A
* DENTON       N/A       49  21  33 S6         N/A
* GEYSER       N/A       48  15  27 E1         N/A
* JUDITH GAP   N/A       44  24  45 S15        N/A
* LOMA         N/A       43  32  65 NE4        N/A
$$

MTZ017>020-022>027-061-062-292200-
NORTHEAST MONTANA
CITY           SKY/WX    TMP DP  RH WIND       PRES   REMARKS
GLASGOW        FOG       30  28  92 E12       30.33F VSB M1/4 WCI  20
GLENDIVE       SUNNY     37  27  67 S8        30.37F WCI  31
JORDAN         SUNNY     45  27  49 S14       30.30F
SIDNEY         PTCLDY    36  25  64 SE7       30.41F WCI  30
WOLF POINT     SUNNY     39  28  65 NE7       30.37F WCI  34
* BEAVER HILL  N/A       38  23  55 SW8        N/A   WCI  32
* CIRCLE       N/A       43  30  60 S5         N/A
* LINDSAY DVD  N/A       41  23  49 S8         N/A
* NAVAJO       N/A       31  21  66 S6         N/A   WCI  25
* PLENTYWOOD A PTCLDY    27  19  72 SE5       30.38F WCI  21
* POPLAR APT   PTCLDY    34  25  70 N/A       30.38F
* SACO         N/A       29  29 100 E12        N/A   WCI  19
* SCOBEY APT   PTCLDY    34  21  59 N/A        N/A
$$

MTZ028>042-056>058-292200-
SOUTHCENTRAL AND SOUTHEAST MONTANA
CITY           SKY/WX    TMP DP  RH WIND       PRES   REMARKS
BAKER          SUNNY     39  18  43 W6        30.38F WCI  35
BILLINGS       SUNNY     46  27  48 S8        30.30F
LIVINGSTON     SUNNY     48  18  30 SW21      30.26F
MILES CITY     SUNNY     43  27  53 SE9       30.35F
* BIG TIMBER A SUNNY     48  21  34 SW13      30.27F
* FORSYTH APT  SUNNY     48  19  32 SE12      30.33F
* LAUREL APT   SUNNY     50  25  38 S14G23     N/A
* ROUNDUP APT  SUNNY     48  21  34 S11G18     N/A
* ALZADA       N/A       43  21  42 W6         N/A
* HYSHAM       N/A       47  18  31 W5         N/A
* LAME DEER    N/A       42  17  36 SE9G14     N/A
* REED POINT   N/A       48  23  37 NE1G9      N/A
* ROSCOE HILL  N/A       44  14  30 E6         N/A
$$

REGIONAL REPORTS...DAKOTAS
CITY           SKY/WX    TMP DP  RH WIND       PRES   REMARKS
WILLISTON      PTCLDY    30  19  64 CALM      30.41F
DICKINSON      PTCLDY    37  19  48 W3        30.37F
BEACH          SUNNY     36  25  64 SW6       30.38F WCI  31
CROSBY         CLOUDY    23  19  85 CALM      30.43F
TIOGA          PTSUNNY   25  23  92 SW5       30.43F WCI  19
WATFORD CITY   SUNNY     32  21  64 CALM      30.39F
BISMARCK       SUNNY     28  18  66 N7        30.47F WCI  21
GRAND FORKS    PTCLDY    14   3  61 N18       30.54R WCI  -3
FARGO          LGT SNOW  18   9  68 NW20      30.51R WCI   2
BUFFALO SD     SUNNY     43   9  25 SW7       30.33F
RAPID CITY     SUNNY     46  12  25 NE3       30.41F
$$

REGIONAL REPORTS...WYOMING/IDAHO/WASHINGTON
CITY           SKY/WX    TMP DP  RH WIND       PRES   REMARKS
GILLETTE       SUNNY     46  21  37 SE9       30.34F
SHERIDAN       SUNNY     48  23  37 SE10      30.31F
CODY           SUNNY     45  30  56 SE12G18   30.29F
YELLOWSTONE LA SUNNY     21  14  74 SE3       30.37F
SALMON         PTCLDY    25  21  85 CALM      30.40F
MULLAN PASS    SUNNY     36  16  44 CALM      30.29S
SAND POINT     CLOUDY    34  34 100 CALM      30.40F
SPOKANE        FOG       34  34 100 CALM      30.38F VSB M1/4
$$

REGIONAL REPORTS...ALBERTA
CITY           SKY/WX    TMP DP  RH WIND       PRES   REMARKS
CALGARY        PTSUNNY   39  21  48 S5        30.12F WCI  35
LETHBRIDGE     SUNNY     52  21  30 SW18G26   30.15F
MEDICINE HAT   SUNNY     46  30  54 SW12      30.18F
EDMONTON       FOG       27  25  92 S6        30.18S VSB 1 3/4 WCI  20
WATERTON GATE  N/A       46  14  27 SW17G24    N/A
CARDSTON       N/A       50  18  28 W10        N/A
MILK RIVER     N/A       43  30  60 S12        N/A
$$

REGIONAL REPORTS...SASKATCHEWAN
CITY           SKY/WX    TMP DP  RH WIND       PRES   REMARKS
SWIFT CURRENT  SUNNY     28  27  96 S18       30.23F WCI  15
MOOSE JAW      PTCLDY    25  19  78 S6        30.38F WCI  18
REGINA         LGT SNOW  14  10  84 SE10      30.41F WCI   1
VAL MARIE      N/A       34  30  85 SE7        N/A   WCI  28
ASSINIBOIA     N/A       28  19  69 S7         N/A   WCI  21
CORONACH       N/A       32  23  69 SE8        N/A   WCI  25

$$



USA.gov is the U.S. government's official web portal to all federal, state and local government web resources and services.